Location: Newark
(37.9128°N, 122.4756°W)
Time: 05:05:01
(UTC+00:00)

Envisat - Visible Passes

Search period start: 17 November 2019 00:00
Search period end: 27 November 2019 00:00
Orbit: 764 x 766 km, 98.1° (Epoch: 16 November)

Date Brightness Start Highest point End Pass type
(mag) Time Alt. Az. Time Alt. Az. Time Alt. Az.
17 Nov 3.1 01:48:16 10° SSE 01:53:10 51° ENE 01:58:05 10° N visible
17 Nov 5.8 03:29:16 10° SW 03:32:27 17° W 03:35:40 10° NW visible
17 Nov 5.9 13:59:47 10° NE 14:03:31 20° E 14:07:13 10° SE visible
18 Nov 4.4 02:50:44 10° SSW 02:55:25 38° W 03:00:10 10° NNW visible
19 Nov 3.0 02:13:31 10° SSE 02:18:36 89° W 02:23:42 10° NNW visible
19 Nov 4.9 14:24:30 10° NNE 14:29:11 36° E 14:33:49 10° SSE visible
20 Nov 3.4 01:37:15 10° SE 01:41:57 40° ENE 01:46:41 10° N visible
20 Nov 5.4 03:17:16 10° SW 03:21:05 21° W 03:24:56 10° NW visible
20 Nov 6.1 13:49:06 10° NE 13:52:08 16° E 13:55:09 10° SE visible
21 Nov 3.9 02:39:14 10° S 02:44:07 49° W 02:49:03 10° NNW visible
22 Nov 2.9 02:02:18 10° SSE 02:07:20 72° ENE 02:12:25 10° N visible
22 Nov 6.2 03:45:12 10° WSW 03:46:50 11° W 03:48:28 10° WNW visible
22 Nov 5.3 14:13:29 10° NE 14:17:51 28° E 14:22:10 10° SSE visible
23 Nov 3.7 01:26:19 10° SE 01:30:45 32° ENE 01:35:13 10° N visible
23 Nov 5.0 03:05:27 10° SSW 03:09:44 27° W 03:14:02 10° NW visible
23 Nov 6.3 13:38:49 10° ENE 13:40:45 12° E 13:42:39 10° ESE visible
24 Nov 3.4 02:27:48 10° S 02:32:49 63° W 02:37:52 10° NNW visible
25 Nov 3.0 01:51:09 10° SSE 01:56:06 56° ENE 02:01:04 10° N visible
25 Nov 5.9 03:32:34 10° SW 03:35:26 15° W 03:38:19 10° WNW visible
25 Nov 5.7 14:02:33 10° NE 14:06:30 22° E 14:10:24 10° SE visible
26 Nov 4.0 01:15:29 10° ESE 01:19:34 25° ENE 01:23:40 10° NNE visible
26 Nov 4.6 02:53:48 10° SSW 02:58:24 35° W 03:03:02 10° NNW visible
